User: anonymous   Login
Location: Unspecified
(0.0000°N, 0.0000°E)
Time: 18:25:05
(UTC+00:00)
Language:

DELFI C3 - Orbit

View from above orbital plane
View from above orbital plane
View from above satellite
View from above satellite

Ground track
Ground track

The orbit data is extracted from the following two-line orbital elements,

1 32789U 08021G   17080.91053944 +.00002132 +00000-0 +15622-3 0  9998
2 32789 097.5693 140.9540 0013562 044.1286 316.1020 15.04528240483644
Epoch (UTC): 21 March 2017 21:51:10
Eccentricity: 0.0013562
inclination: 97.5693°
perigee height: 543 km
apogee height: 562 km
right ascension of ascending node: 140.9540°
argument of perigee: 44.1286°
revolutions per day: 15.04528240
mean anomaly at epoch: 316.1020°
orbit number at epoch: 48364

The dashed part of the orbit path shows where the satellite is in the earth's shadow,  

DLR